Location: Ferintosh
(52.7647°N, 112.9692°W)
Time: 14:09:47
(UTC+00:00)

Transit 2A - Pass Details

Date: 24 May 2024
Orbit: 592 x 959 km, 66.7° (Epoch: 23 June)

Event Time Altitude Azimuth Distance (km) Brightness Sun altitude
Rises 07:00:11 0° 234° (SW) 2,976 - -16.1°
Exits shadow 07:01:13 - 236° (SW) 2,572 8.5 -16.1°
Reaches altitude 10° 07:02:25 10° 239° (WSW) 2,113 8.0 -16.1°
Maximum altitude 07:07:09 55° 317° (NW) 873 6.6 -16.2°
Drops below altitude 10° 07:12:25 10° 36° (NE) 2,359 9.3 -16.3°
Sets 07:15:02 0° 41° (NE) 3,355 10.1 -16.3°
